STARLINK-33625, 63327

Orbit data source: Space-Track

STARLINK-33625, 63327 is a payload satellite owned by SpaceX/Seattle (US) in LEO that was launched on Tue, 18 Mar 2025 UTC via an FALCON 9 launch vehicle from the Air Force Eastern Test Range (AFETR). Payload-class satellites include a variety of spacecraft equipped with specific instruments for various scientific and technological missions. These include communications satellites like Starlink; space stations such as the ISS; scientific satellites like the Hubble; Earth observation satellites from companies like Planet Labs, Umbra, and HawkEye 360; GPS; miniature CubeSats for education and research; and military/defense satellites.

Loading next visibility...
Identifier
63327, 2025-057W
Orbit
LEO
Last TLE update
2 hours ago
Origin
Manufacturer
SpaceX/Seattle
Mission
Operational Commercial Communications
Bus & Motor
STARLINK V2MO, Unknown motor
Mass
575 kg wet, ~530 kg dry
Launch date (UTC)
2025-03-18 (4 months ago)
Launch vehicle
FALCON 9
Launch site
Air Force Eastern Test Range (AFETR)
Object type
Payload
Rocket body
Debris
Shape & HBR
Box + 1 Pan, 29 m
Radar Cross Section
41.120 m², Large (>1 m²)

Expand to show TLE details & history

TLE from 2 hours ago
0 STARLINK-33625
1 63327U 25057W   25189.25001157  .00034195  00000-0  12160-2 0  9990
2 63327  42.9996 323.7369 0001506 263.7521   9.1528 15.28389281 18475
Epoch: 2025-07-08T06:00Z
TLE epoch observation values (Epoch: 2025-07-08T06:00:00.999Z)
Latitude
-43.08923°
Longitude
-138.74991°
Altitude
492.927 km
Speed
7.619 km/s
True Right ascension
15h 50m 48s
True Declination
-42° 54' 40"
Sunlit
Object was in full shadow at epoch
Visualization orbit readout
Latitude
39.46412°
Longitude
8.15778°
Altitude
483.954 km
Speed
7.628 km/s
Apparent Right ascension
04h 48m 29s
Apparent Declination
2° 21' 29"
Sunlit
Object is in daylight
Visualization observer readout
Local Sidereal Time
20:20:25
Azimuth
62.375° ENE
Elevation
-25.782°
Doppler factor
1
Orbital elements
Apogee altitude
483.606 km
Perigee altitude
481.54 km
Semi-major axis
6,860.71 km
Eccentricity
0.00015
Inclination
42.9996°
RAAN
323.7369°
Arg. of periapsis
263.7521°
True anomaly
Unknown
Mean anomaly
9.1528°
Eccentric anomaly
Unknown
Mean motion
3.81935 °/min
Orbital period
94.26 mins
BSTAR
0.001216
Loading maneuver chart data...
Loading SW <> Apogee altitude chart data...
Loading historical data...
Loading historical data...
Loading historical data...
Loading historical data...
Loading historical data...
Loading historical data...
Loading historical data...

STARLINK-33625 Visibility forecast

Observer location: undefined°, undefined°

Span
Click to sort rows by Start time (UTC) header in descending order
Start Az.
Max El. time (UTC)
Max El. Az.
Max El.
End time (UTC)
End Az.
5 mins2025-07-08 12:53:44.318Z222.731° SW2025-07-08 12:55:44.318Z146.331° SSE39.218°2025-07-08 12:58:44.318Z78.73° E
5 mins2025-07-08 14:32:44.318Z282.655° WNW2025-07-08 14:34:44.318Z6.772° NNE39.715°2025-07-08 14:37:44.318Z70.107° E
5 mins2025-07-08 16:11:44.318Z297.048° NW2025-07-08 16:13:44.318Z11.967° NNE40.925°2025-07-08 16:16:44.318Z88.854° E
5 mins2025-07-08 17:50:44.318Z268.99° W2025-07-08 17:52:44.318Z198.258° SSW36.346°2025-07-08 17:55:44.318Z134.186° SE
|